Total_Precipitation_Accumulation
0.74 0.76 0.76 0.66 0.53 0.49 0.48 0.46 0.46 0.49 0.55 0.56 0.59 0.65 0.66 0.67 0.69 0.71 0.77 0.83 0.89 1.00 1.07 1.21 1.41 1.59 1.66 1.66 1.71 1.77 1.82 1.68 1.42 1.29 1.07 1.09 1.24 1.20 1.19 1.13 1.21 1.26 1.03
0.70 0.66 0.63 0.56 0.48 0.47 0.44 0.39 0.41 0.46 0.48 0.49 0.55 0.58 0.58 0.64 0.66 0.66 0.66 0.69 0.78 0.86 0.86 0.88 0.99 1.21 1.38 1.51 1.60 1.62 1.69 1.68 1.54 1.52 1.44 1.23 1.20 1.20 1.31 1.38 1.31 1.27 1.23
0.77 0.66 0.62 0.58 0.55 0.52 0.46 0.43 0.42 0.49 0.59 0.62 0.62 0.65 0.62 0.64 0.64 0.65 0.68 0.70 0.72 0.77 0.81 0.82 0.89 0.98 1.15 1.24 1.35 1.46 1.54 1.67 1.66 1.49 1.54 1.48 1.28 1.24 1.28 1.36 1.42 1.51 1.39
0.97 0.82 0.73 0.66 0.61 0.53 0.48 0.46 0.43 0.46 0.53 0.56 0.64 0.72 0.79 0.84 0.82 0.79 0.78 0.76 0.71 0.72 0.79 0.86 0.88 0.88 1.00 1.21 1.34 1.42 1.46 1.57 1.70 1.64 1.58 1.55 1.40 1.32 1.33 1.36 1.48 1.58 1.58
0.99 0.85 0.71 0.61 0.53 0.49 0.52 0.53 0.48 0.43 0.45 0.46 0.55 0.64 0.73 0.82 0.87 0.88 0.74 0.63 0.63 0.68 0.69 0.70 0.78 0.85 0.87 1.03 1.19 1.43 1.45 1.57 1.65 1.72 1.66 1.51 1.38 1.32 1.29 1.29 1.38 1.57 1.62
0.81 0.77 0.62 0.55 0.49 0.44 0.46 0.52 0.53 0.42 0.40 0.42 0.46 0.44 0.47 0.51 0.68 0.69 0.57 0.46 0.51 0.61 0.68 0.70 0.70 0.72 0.74 0.79 0.82 1.07 1.27 1.39 1.50 1.53 1.59 1.48 1.36 1.31 1.39 1.40 1.35 1.39 1.50
0.51 0.52 0.43 0.41 0.48 0.47 0.48 0.47 0.42 0.35 0.37 0.39 0.34 0.30 0.32 0.36 0.42 0.41 0.47 0.47 0.49 0.54 0.62 0.71 0.76 0.74 0.79 0.88 0.85 0.88 0.97 1.04 1.17 1.30 1.35 1.31 1.30 1.26 1.35 1.40 1.38 1.31 1.24
0.26 0.24 0.20 0.27 0.38 0.39 0.35 0.33 0.29 0.30 0.34 0.41 0.35 0.32 0.36 0.34 0.35 0.40 0.44 0.45 0.57 0.64 0.63 0.63 0.75 0.81 0.87 1.02 1.01 1.07 1.00 0.90 0.89 0.94 1.09 1.16 1.12 1.22 1.31 1.48 1.55 1.42 1.32
0.07 0.07 0.09 0.10 0.11 0.12 0.11 0.13 0.18 0.24 0.28 0.26 0.29 0.44 0.44 0.41 0.48 0.46 0.39 0.45 0.57 0.65 0.60 0.63 0.74 0.84 0.99 1.10 1.14 1.16 1.06 0.96 0.99 1.07 1.15 1.22 1.24 1.30 1.37 1.44 1.49 1.48 1.40
0.06 0.06 0.07 0.06 0.07 0.07 0.07 0.08 0.11 0.15 0.20 0.21 0.24 0.38 0.44 0.46 0.47 0.36 0.34 0.44 0.56 0.64 0.65 0.65 0.87 0.88 0.96 1.01 1.07 1.19 1.21 1.07 1.00 1.02 1.08 1.10 1.10 1.18 1.38 1.39 1.50 1.58 1.45
0.08 0.07 0.06 0.05 0.07 0.10 0.12 0.10 0.11 0.10 0.11 0.15 0.20 0.24 0.25 0.25 0.25 0.25 0.30 0.35 0.42 0.54 0.62 0.66 0.63 0.75 0.78 0.88 0.99 1.07 1.28 1.16 1.09 1.10 1.08 0.99 0.95 1.01 1.13 1.30 1.44 1.52 1.46
0.09 0.08 0.07 0.07 0.07 0.08 0.15 0.15 0.13 0.13 0.10 0.11 0.16 0.22 0.21 0.17 0.15 0.17 0.21 0.25 0.32 0.38 0.46 0.57 0.56 0.65 0.69 0.76 0.78 0.95 1.13 1.10 1.03 1.10 1.10 1.03 0.94 0.93 0.96 1.03 1.19 1.27 1.24
0.11 0.10 0.10 0.09 0.10 0.09 0.10 0.13 0.14 0.12 0.11 0.12 0.14 0.17 0.19 0.20 0.17 0.19 0.21 0.25 0.28 0.29 0.31 0.46 0.53 0.60 0.59 0.58 0.70 0.89 0.95 0.99 1.11 1.08 1.10 1.04 0.95 0.91 0.85 0.88 0.99 1.07 1.05
0.14 0.14 0.12 0.13 0.13 0.13 0.13 0.15 0.16 0.17 0.17 0.17 0.17 0.19 0.22 0.23 0.19 0.19 0.24 0.28 0.29 0.28 0.30 0.44 0.56 0.62 0.60 0.59 0.66 0.78 0.84 0.96 1.11 1.04 1.00 0.94 0.87 0.87 0.85 0.85 0.88 0.94 1.00
0.19 0.18 0.18 0.17 0.17 0.18 0.18 0.18 0.18 0.20 0.23 0.22 0.23 0.25 0.24 0.22 0.21 0.22 0.24 0.28 0.30 0.30 0.38 0.54 0.67 0.68 0.68 0.65 0.69 0.79 0.77 0.74 0.84 0.83 0.86 0.87 0.85 0.84 0.80 0.75 0.77 0.81 0.86
0.20 0.19 0.17 0.18 0.21 0.21 0.20 0.18 0.17 0.18 0.22 0.22 0.21 0.22 0.22 0.20 0.19 0.22 0.26 0.29 0.31 0.40 0.55 0.72 0.83 0.92 0.91 0.84 0.80 0.79 0.72 0.70 0.70 0.72 0.81 0.81 0.78 0.81 0.81 0.75 0.76 0.79 0.80
0.16 0.17 0.15 0.15 0.15 0.18 0.19 0.18 0.18 0.18 0.19 0.20 0.19 0.19 0.20 0.21 0.21 0.27 0.32 0.34 0.39 0.61 0.83 0.87 0.90 0.95 0.97 0.90 0.79 0.71 0.61 0.55 0.58 0.64 0.67 0.69 0.72 0.74 0.78 0.78 0.76 0.75 0.71
0.16 0.20 0.19 0.15 0.13 0.13 0.14 0.16 0.18 0.20 0.20 0.19 0.19 0.19 0.19 0.20 0.24 0.34 0.45 0.54 0.58 0.72 0.85 0.88 0.96 0.95 0.91 0.80 0.66 0.57 0.48 0.46 0.49 0.51 0.51 0.50 0.56 0.61 0.66 0.71 0.73 0.71 0.66
0.15 0.18 0.19 0.18 0.16 0.16 0.15 0.13 0.13 0.15 0.17 0.18 0.18 0.17 0.16 0.16 0.18 0.24 0.30 0.35 0.37 0.44 0.52 0.57 0.62 0.62 0.58 0.52 0.47 0.44 0.40 0.39 0.40 0.42 0.44 0.45 0.49 0.51 0.53 0.58 0.66 0.72 0.72
0.12 0.17 0.21 0.22 0.21 0.19 0.18 0.14 0.13 0.12 0.12 0.13 0.14 0.16 0.18 0.18 0.19 0.19 0.20 0.21 0.23 0.25 0.28 0.30 0.31 0.32 0.33 0.34 0.35 0.37 0.38 0.39 0.41 0.44 0.46 0.46 0.50 0.54 0.52 0.53 0.58 0.64 0.67
0.11 0.13 0.17 0.22 0.22 0.21 0.20 0.20 0.17 0.15 0.14 0.15 0.16 0.19 0.22 0.22 0.21 0.23 0.24 0.25 0.26 0.26 0.26 0.27 0.28 0.28 0.29 0.32 0.37 0.40 0.43 0.43 0.42 0.45 0.48 0.48 0.49 0.53 0.54 0.57 0.59 0.63 0.66
0.10 0.10 0.13 0.16 0.21 0.22 0.21 0.20 0.19 0.18 0.18 0.18 0.18 0.19 0.24 0.25 0.27 0.28 0.28 0.29 0.31 0.30 0.29 0.30 0.31 0.32 0.33 0.35 0.41 0.47 0.49 0.49 0.47 0.46 0.49 0.51 0.52 0.54 0.54 0.56 0.59 0.64 0.68
0.14 0.14 0.15 0.17 0.19 0.22 0.22 0.19 0.20 0.21 0.23 0.23 0.22 0.21 0.23 0.24 0.27 0.29 0.29 0.31 0.33 0.32 0.29 0.29 0.30 0.32 0.32 0.34 0.39 0.46 0.51 0.53 0.54 0.54 0.56 0.57 0.58 0.59 0.61 0.61 0.59 0.60 0.65
0.18 0.18 0.18 0.17 0.17 0.18 0.19 0.19 0.20 0.22 0.24 0.25 0.23 0.22 0.23 0.24 0.25 0.27 0.29 0.30 0.32 0.32 0.31 0.32 0.32 0.33 0.35 0.37 0.41 0.44 0.47 0.52 0.58 0.63 0.66 0.66 0.64 0.64 0.67 0.68 0.66 0.66 0.73
0.14 0.17 0.18 0.18 0.18 0.20 0.20 0.20 0.22 0.23 0.23 0.25 0.26 0.26 0.26 0.28 0.29 0.32 0.34 0.34 0.34 0.34 0.33 0.34 0.35 0.35 0.37 0.39 0.42 0.46 0.54 0.57 0.58 0.61 0.65 0.69 0.66 0.67 0.70 0.70 0.71 0.73 0.77
0.13 0.17 0.21 0.21 0.21 0.22 0.22 0.21 0.23 0.25 0.26 0.26 0.26 0.28 0.29 0.31 0.32 0.33 0.37 0.39 0.41 0.41 0.39 0.40 0.40 0.38 0.36 0.37 0.39 0.44 0.50 0.51 0.52 0.56 0.60 0.66 0.71 0.71 0.73 0.75 0.73 0.72 0.74